Lake Cypress Springs Weather Center

Moon Phase Calendar



Lake Cypress Springs Water Level
Online Cameras

 


      

Current Conditions in Winnsboro
11/28/2021 3:30:58 AM

49°F
Feels Like 47
Clouds
Humidity
97%
Pressure
30.12"
Wind
4.4 mph (W)
Dew Point
48°F
UV Index
0/10 (Low)
Visibility
6 mi

Hourly Forecast

Date & Time Sun, Nov 28
3:00 AM
Sun, Nov 28
4:00 AM
Sun, Nov 28
5:00 AM
Sun, Nov 28
6:00 AM
Sun, Nov 28
7:00 AM
Sun, Nov 28
8:00 AM
Sun, Nov 28
9:00 AM
Sun, Nov 28
10:00 AM
Sun, Nov 28
11:00 AM
Sun, Nov 28
12:00 PM
Sun, Nov 28
1:00 PM
Sun, Nov 28
2:00 PM
Sun, Nov 28
3:00 PM
Sun, Nov 28
4:00 PM
Sun, Nov 28
5:00 PM
Sun, Nov 28
6:00 PM
Sun, Nov 28
7:00 PM
Sun, Nov 28
8:00 PM
Sun, Nov 28
9:00 PM
Sun, Nov 28
10:00 PM
Sun, Nov 28
11:00 PM
Mon, Nov 29
12:00 AM
Mon, Nov 29
1:00 AM
Mon, Nov 29
2:00 AM
Mon, Nov 29
3:00 AM
Mon, Nov 29
4:00 AM
Mon, Nov 29
5:00 AM
Mon, Nov 29
6:00 AM
Mon, Nov 29
7:00 AM
Mon, Nov 29
8:00 AM
Mon, Nov 29
9:00 AM
Mon, Nov 29
10:00 AM
Mon, Nov 29
11:00 AM
Mon, Nov 29
12:00 PM
Mon, Nov 29
1:00 PM
Mon, Nov 29
2:00 PM
Mon, Nov 29
3:00 PM
Mon, Nov 29
4:00 PM
Mon, Nov 29
5:00 PM
Mon, Nov 29
6:00 PM
Mon, Nov 29
7:00 PM
Mon, Nov 29
8:00 PM
Mon, Nov 29
9:00 PM
Mon, Nov 29
10:00 PM
Mon, Nov 29
11:00 PM
Tue, Nov 30
12:00 AM
Tue, Nov 30
1:00 AM
Tue, Nov 30
2:00 AM
Condition
Rain

Clouds

Clouds

Clouds

Clouds

Clouds

Clouds

Clouds

Clouds

Clouds

Clear

Clear

Clear

Clear

Clear

Clear

Clear

Clear

Clear

Clear

Clear

Clear

Clear

Clear

Clear

Clear

Clear

Clear

Clear

Clear

Clear

Clear

Clear

Clear

Clear

Clear

Clear

Clear

Clear

Clear

Clear

Clear

Clear

Clear

Clear

Clear

Clear

Clear
Temperature 49°F49°F49°F49°F48°F49°F52°F56°F59°F61°F63°F64°F64°F62°F57°F54°F52°F51°F50°F49°F48°F48°F47°F47°F46°F46°F46°F46°F45°F48°F53°F57°F61°F64°F66°F67°F67°F65°F59°F56°F55°F54°F53°F52°F51°F51°F51°F50°F
Feels Like 47°F47°F47°F47°F46°F47°F51°F54°F57°F60°F62°F62°F62°F60°F54°F51°F50°F49°F48°F47°F47°F47°F46°F47°F46°F46°F46°F46°F44°F46°F51°F55°F59°F62°F64°F65°F65°F63°F57°F54°F52°F51°F51°F50°F49°F49°F48°F48°F
Cloudiness 100%100%100%99%72%54%35%27%21%18%0%0%0%0%0%0%0%2%1%1%1%1%0%0%0%0%0%0%0%0%0%0%0%0%0%0%0%0%0%0%0%0%0%0%0%0%0%0%
Visibility 6 mi6 mi6 mi6 mi6 mi6 mi6 mi6 mi6 mi6 mi6 mi6 mi6 mi6 mi6 mi6 mi6 mi6 mi6 mi6 mi6 mi6 mi6 mi6 mi6 mi6 mi6 mi6 mi6 mi6 mi6 mi6 mi6 mi6 mi6 mi6 mi6 mi6 mi6 mi6 mi6 mi6 mi6 mi6 mi6 mi6 mi6 mi6 mi
Precipitation 70%70%70%70%0%0%0%0%0%0%0%0%0%0%0%0%0%0%0%0%0%0%0%0%0%0%0%0%0%0%0%0%0%0%0%0%0%0%0%0%0%0%0%0%0%0%0%0%
Humidity 97%97%98%98%98%96%84%72%63%56%50%44%39%45%53%54%56%59%61%63%64%66%67%68%68%68%69%69%69%67%57%50%44%39%36%35%36%43%51%53%55%58%59%61%62%63%64%65%
Dew Point 48°F48°F48°F48°F48°F48°F47°F46°F46°F45°F44°F41°F39°F41°F39°F37°F37°F37°F37°F37°F37°F37°F36°F36°F36°F36°F36°F36°F36°F37°F38°F38°F39°F39°F38°F38°F39°F42°F41°F39°F39°F39°F39°F39°F39°F39°F39°F39°F
Pressure 30.12"30.12"30.12"30.12"30.15"30.18"30.18"30.21"30.21"30.18"30.15"30.15"30.12"30.12"30.15"30.18"30.18"30.21"30.21"30.21"30.21"30.21"30.21"30.21"30.21"30.18"30.18"30.18"30.21"30.21"30.21"30.21"30.18"30.15"30.12"30.09"30.09"30.09"30.06"30.09"30.09"30.12"30.09"30.09"30.09"30.09"30.09"30.09"
Wind Speed 4.7 mph4.4 mph4.4 mph4.7 mph4.8 mph4.1 mph7.1 mph7.7 mph7.2 mph7.9 mph9.1 mph9.3 mph8.3 mph6.6 mph7 mph6.8 mph6.5 mph6.5 mph5.3 mph4.3 mph3.6 mph3.3 mph3 mph2.1 mph0.9 mph0.4 mph1 mph2.5 mph3.3 mph4 mph4.7 mph5.7 mph6.1 mph7.4 mph8.7 mph9.4 mph9.4 mph7.4 mph6.7 mph6.4 mph7.5 mph7.8 mph8.1 mph8.2 mph8 mph8.1 mph8 mph8.2 mph
Wind
Direction
250°
WSW
268°
W
290°
WNW
311°
NW
333°
NNW
346°
NNW
356°
N

N

N

N
358°
N
352°
N
350°
N
333°
NNW
332°
NNW
339°
NNW
339°
NNW
349°
N
359°
N
354°
N
351°
N
355°
N
342°
NNW
336°
NNW
306°
NW
216°
SW
207°
SSW
200°
SSW
203°
SSW
198°
SSW
196°
SSW
199°
SSW
199°
SSW
207°
SSW
217°
SW
222°
SW
223°
SW
216°
SW
206°
SSW
198°
SSW
199°
SSW
203°
SSW
200°
SSW
199°
SSW
201°
SSW
203°
SSW
207°
SSW
207°
SSW

Daily Forecast

Date High Low Precip. Humidity
Today
Nov 28

Rain
64 °F
48 °F
74%
56%
Monday
Nov 29

Clear
67 °F
45 °F
0%
39%
Tuesday
Nov 30

Clear
70 °F
49 °F
0%
39%
Wednesday
Dec 1

Clouds
71 °F
54 °F
0%
67%
Thursday
Dec 2

Clear
71 °F
52 °F
0%
43%
Friday
Dec 3

Rain
75 °F
56 °F
74%
51%
Saturday
Dec 4

Rain
78 °F
60 °F
96%
66%
Sunday
Dec 5

Rain
75 °F
62 °F
100%
81%
Monday
Dec 6

Rain
56 °F
46 °F
60%
44%
Tuesday
Dec 7

Rain
55 °F
48 °F
100%
97%
Wednesday
Dec 8

Rain
56 °F
37 °F
100%
67%
Thursday
Dec 9

Clear
54 °F
31 °F
0%
34%
Friday
Dec 10

Clear
63 °F
40 °F
0%
39%
Saturday
Dec 11

Clear
65 °F
44 °F
0%
51%
Sunday
Dec 12

Rain
70 °F
54 °F
20%
76%
Monday
Dec 13

Rain
68 °F
62 °F
33%
89%

Temperature 8-14 Day Outlook



Precipitation 8-14 Day Outlook




Quick Links
Lake Cypress Springs News
Lake Cypress Springs Photos
Lake Cypress Springs Videos




About Us
Contact Us
Site Map
Search Site
Advertise With Us
   
Cypress-Springs.LakesOnline.com
THE LAKE CYPRESS SPRINGS WEBSITE

Copyright 2021, Lakes Online
Privacy    |    Legal